sat.trackr.live / text

‹ back to catalog

STARLINK-35611

NORAD 66427 · 2025-259F

PAYLOAD ACTIVE UNKNOWN

§ Identity

Operator
Country
US
Launch date
2025-11-11
Launch site
AFETR
Launch vehicle
Mass (kg)
RCS (m²)

Purposes: comms

External: N2YO · Heavens-Above · Gunter

§ Orbital elements

Epoch: 2026-05-25T04:54:24.312384Z

Period
94.27 min
Inclination
43.0009°
Eccentricity
0.0000522
Mean motion
15.27592958 rev/d
Perigee alt
482.7 km
Apogee alt
483.4 km
Semi-major
6,861.1 km
B*
4.2887e-4
RAAN
202.1969°
Arg perigee
294.2946°
Mean anomaly
65.7851°
Rev number
3,119

§ Raw data

STARLINK-356111 66427U 25259F   26145.20444806  .00011563  00000+0  42887-3 0  99912 66427  43.0009 202.1969 0000522 294.2946  65.7851 15.27592958 31196

JSON: /api/v1/satellites/66427 · /tle

For live sub-satellite position, see the globe view (requires WebGL).

§ Visibility from observer

Set your observer location to see the next 7 days of passes ≥ 10°. The values pass through the URL so the page stays shareable.

No JS? Fill the form by hand. The geolocation button needs JavaScript.